CAPE
8 10 4 2 4 2 10 14 12 15 16 5 4 0 3 9 1 0 0 0 0 0 64 0 0 0 0 0 0 0 0 0 0 0 0 0 0 0 0 0 0 0 0 0 0
6 3 2 2 2 2 9 11 13 12 11 13 6 0 1 8 0 0 0 0 9 0 0 0 0 0 0 0 0 0 0 0 0 0 0 0 0 0 0 0 0 0 0 0 0
3 2 5 4 4 2 10 13 10 10 10 9 5 1 10 0 0 0 0 0 0 17 0 0 0 0 0 0 0 0 0 0 0 0 0 0 0 0 0 0 0 0 0 0 0
3 2 8 7 7 4 4 9 8 9 8 7 4 5 9 0 0 0 92 0 4 0 0 0 0 0 0 0 0 0 0 0 0 0 0 0 0 0 0 0 0 0 0 0 0
5 4 8 8 6 8 1 4 8 6 4 3 3 13 0 0 0 12 291 48 0 0 0 0 0 0 0 0 0 0 0 0 0 0 0 0 0 0 0 0 0 0 0 0 0
9 9 7 7 7 6 3 4 2 5 2 3 3 11 0 0 0 0 3 0 0 0 0 0 0 0 0 0 0 0 0 0 0 0 0 0 0 0 0 0 0 0 0 0 0
11 10 8 6 5 6 3 4 3 1 1 2 16 0 0 0 0 0 0 0 0 0 0 0 0 0 0 0 0 0 0 0 0 0 0 0 0 0 0 0 0 0 0 0 0
11 10 8 6 4 3 1 4 0 0 1 3 8 0 0 0 0 0 0 0 0 0 0 0 0 0 0 0 0 0 0 0 0 0 0 0 0 0 0 0 0 0 0 0 0
11 9 8 6 4 1 0 11 0 0 1 7 0 0 0 0 0 0 0 0 0 0 0 0 0 0 0 0 0 0 0 0 0 0 0 0 0 0 0 0 0 0 0 0 0
12 9 8 5 3 0 0 4 3 2 1 0 0 0 0 0 0 0 0 0 0 0 0 0 0 0 0 0 0 0 0 0 0 0 0 0 0 0 0 0 0 0 0 0 0
11 10 8 5 4 0 0 1 1 0 0 0 0 0 0 0 0 0 0 0 0 0 0 0 0 0 0 0 0 0 0 0 0 0 0 0 0 0 0 0 0 0 0 0 0
12 10 8 5 3 1 0 1 0 0 0 0 0 0 0 0 0 0 0 0 0 0 0 0 0 0 0 0 0 0 0 0 0 0 0 0 0 0 0 0 0 0 0 0 0
12 10 7 5 7 2 0 1 0 0 0 0 0 0 0 0 0 0 0 0 0 0 0 0 0 0 0 0 0 0 0 0 0 0 0 0 0 0 0 0 0 0 0 0 0
10 9 8 2 0 0 0 0 0 0 0 0 0 0 0 0 0 0 0 0 0 0 0 0 0 0 0 0 0 0 0 0 0 0 0 0 0 0 0 0 0 0 0 0 0
8 6 4 6 1 0 0 0 0 0 0 0 0 0 0 0 0 0 0 0 0 0 0 0 0 0 0 0 0 0 0 0 0 0 0 0 0 0 0 0 0 0 0 0 0
2 7 2 5 1 0 0 0 0 0 0 0 0 0 0 0 0 0 0 0 0 0 0 0 0 0 0 0 0 0 0 0 0 0 0 0 0 0 0 0 0 0 0 0 0
4 1 1 0 0 0 0 0 0 0 0 0 0 0 0 0 0 0 0 0 0 0 0 0 0 0 0 0 0 0 0 0 0 0 0 0 0 0 0 0 0 0 0 0 0
0 0 0 0 0 0 0 0 0 0 0 0 0 0 0 0 0 0 0 0 0 0 0 0 0 0 0 0 0 0 0 0 0 0 0 0 0 0 0 0 0 0 0 0 0
0 0 0 0 0 2 33 0 0 0 0 0 0 0 0 0 0 0 0 0 0 0 0 0 0 0 0 0 0 0 0 0 0 0 0 0 0 0 0 0 0 0 0 0 0
0 4 0 0 0 6 43 12 0 0 0 0 0 0 0 0 0 0 0 0 0 0 0 0 0 0 0 0 0 0 0 0 0 0 0 0 0 0 0 0 0 0 0 0 0
0 0 0 0 0 18 3 1 0 0 0 0 0 0 0 0 0 0 0 0 0 0 0 0 0 0 0 0 0 0 0 0 0 0 0 0 0 0 0 0 0 0 0 0 0
0 0 0 0 0 3 3 0 0 0 0 0 0 0 0 0 0 0 0 0 0 0 0 0 0 0 0 0 0 0 0 0 0 0 0 0 0 0 0 0 0 0 0 0 0
0 0 0 0 0 0 0 0 0 0 0 0 0 0 0 0 0 0 0 0 0 0 0 0 0 0 0 0 0 0 0 0 0 0 0 0 0 0 0 0 0 0 0 0 0
0 0 0 0 0 0 0 0 0 0 0 0 0 0 0 0 0 0 0 0 0 0 0 0 0 0 0 0 0 0 0 0 0 0 0 0 0 0 0 0 0 0 0 0 0
0 0 0 0 0 0 0 0 0 0 0 0 0 0 0 0 0 0 0 0 0 0 0 0 0 0 0 0 0 0 0 0 0 0 0 0 0 0 0 0 0 0 0 0 0
0 0 0 0 0 0 0 0 0 0 0 0 0 0 0 0 0 0 0 0 0 0 0 0 0 0 0 0 0 0 0 0 0 0 0 0 0 0 0 0 0 0 0 0 0
0 0 0 0 0 0 0 0 0 0 0 0 0 0 0 0 0 0 0 0 0 0 0 0 0 0 0 0 0 0 0 0 0 0 0 0 0 0 0 0 0 0 0 0 0
CIN
0 0 -2 0 0 -1 -1 -2 -2 -4 -1 0 0 0 0 0 0 0 0 0 0 0 -40 0 0 0 0 0 0 0 0 0 0 0 0 0 0 0 0 0 0 0 0 0 0
-1 -1 0 0 0 -1 0 -1 -1 -1 -4 -3 -1 -1 0 0 0 0 0 0 -46 0 0 0 0 0 0 0 0 0 0 0 0 0 0 0 0 0 0 0 0 0 0 0 0
-1 0 0 0 0 -1 0 -1 -1 -1 -2 -3 -1 -1 0 0 0 0 0 0 0 -38 0 0 0 0 0 0 0 0 0 0 0 0 0 0 0 0 0 0 0 0 0 0 0
0 0 0 0 0 0 0 -1 -1 0 -1 -2 -1 0 -27 0 0 0 -198 0 -92 0 0 0 0 0 0 0 0 0 0 0 0 0 0 0 0 0 0 0 0 0 0 0 0
0 0 0 0 0 0 0 0 0 0 -1 0 0 0 0 0 0 -85 -141 -212 0 0 0 0 0 0 0 0 0 0 0 0 0 0 0 0 0 0 0 0 0 0 0 0 0
0 0 0 0 0 0 0 0 0 0 0 0 -2 -80 0 0 0 0 -86 0 0 0 0 0 0 0 0 0 0 0 0 0 0 0 0 0 0 0 0 0 0 0 0 0 0
0 0 0 0 0 0 0 0 0 0 0 0 0 0 0 0 0 0 0 0 0 0 0 0 0 0 0 0 0 0 0 0 0 0 0 0 0 0 0 0 0 0 0 0 0
0 0 0 0 0 0 0 0 0 0 0 -1 0 0 0 0 0 0 0 0 0 0 0 0 0 0 0 0 0 0 0 0 0 0 0 0 0 0 0 0 0 0 0 0 0
0 0 0 0 0 0 0 0 0 0 0 -1 0 0 0 0 0 0 0 0 0 0 0 0 0 0 0 0 0 0 0 0 0 0 0 0 0 0 0 0 0 0 0 0 0
0 0 0 0 0 0 0 0 0 0 0 0 0 0 0 0 0 0 0 0 0 0 0 0 0 0 0 0 0 0 0 0 0 0 0 0 0 0 0 0 0 0 0 0 0
0 0 0 0 0 0 0 0 0 0 0 0 0 0 0 0 0 0 0 0 0 0 0 0 0 0 0 0 0 0 0 0 0 0 0 0 0 0 0 0 0 0 0 0 0
0 0 0 0 0 0 0 -64 0 0 0 0 0 0 0 0 0 0 0 0 0 0 0 0 0 0 0 0 0 0 0 0 0 0 0 0 0 0 0 0 0 0 0 0 0
0 0 0 0 -1 0 0 -129 0 0 0 0 0 0 0 0 0 0 0 0 0 0 0 0 0 0 0 0 0 0 0 0 0 0 0 0 0 0 0 0 0 0 0 0 0
0 0 0 -1 0 0 0 0 0 0 0 0 0 0 0 0 0 0 0 0 0 0 0 0 0 0 0 0 0 0 0 0 0 0 0 0 0 0 0 0 0 0 0 0 0
0 0 0 0 0 0 0 0 0 0 0 0 0 0 0 0 0 0 0 0 0 0 0 0 0 0 0 0 0 0 0 0 0 0 0 0 0 0 0 0 0 0 0 0 0
0 0 0 0 0 0 0 0 0 0 0 0 0 0 0 0 0 0 0 0 0 0 0 0 0 0 0 0 0 0 0 0 0 0 0 0 0 0 0 0 0 0 0 0 0
0 0 0 0 0 0 0 0 0 0 0 0 0 0 0 0 0 0 0 0 0 0 0 0 0 0 0 0 0 0 0 0 0 0 0 0 0 0 0 0 0 0 0 0 0
0 0 0 0 0 0 0 0 0 0 0 0 0 0 0 0 0 0 0 0 0 0 0 0 0 0 0 0 0 0 0 0 0 0 0 0 0 0 0 0 0 0 0 0 0
0 0 0 0 0 -78 -22 -1 0 0 0 0 0 0 0 0 0 0 0 0 0 0 0 0 0 0 0 0 0 0 0 0 0 0 0 0 0 0 0 0 0 0 0 0 0
0 -5 0 0 0 -36 -11 0 0 0 0 0 0 0 0 0 0 0 0 0 0 0 0 0 0 0 0 0 0 0 0 0 0 0 0 0 0 0 0 0 0 0 0 0 0
0 0 0 0 0 -14 -1 -13 0 0 0 0 0 0 0 0 0 0 0 0 0 0 0 0 0 0 0 0 0 0 0 0 0 0 0 0 0 0 0 0 0 0 0 0 0
0 0 0 0 0 -4 0 0 0 0 0 0 0 0 0 0 0 0 0 0 0 0 0 0 0 0 0 0 0 0 0 0 0 0 0 0 0 0 0 0 0 0 0 0 0
0 0 0 0 0 0 0 0 0 0 0 0 0 0 0 0 0 0 0 0 0 0 0 0 0 0 0 0 0 0 0 0 0 0 0 0 0 0 0 0 0 0 0 0 0
0 0 0 0 0 0 0 0 0 0 0 0 0 0 0 0 0 0 0 0 0 0 0 0 0 0 0 0 0 0 0 0 0 0 0 0 0 0 0 0 0 0 0 0 0
0 0 0 0 0 0 0 0 0 0 0 0 0 0 0 0 0 0 0 0 0 0 0 0 0 0 0 0 0 0 0 0 0 0 0 0 0 0 0 0 0 0 0 0 0
0 0 0 0 0 0 0 0 0 0 0 0 0 0 0 0 0 0 0 0 0 0 0 0 0 0 0 0 0 0 0 0 0 0 0 0 0 0 0 0 0 0 0 0 0
0 0 0 0 0 0 0 0 0 0 0 0 0 0 0 0 0 0 0 0 0 0 0 0 0 0 0 0 0 0 0 0 0 0 0 0 0 0 0 0 0 0 0 0 0
Wind_Speed
14 14 13 13 12 10 10 8 8 9 8 9 7 8 6 4 3 7 11 6 7 13 7 11 8 7 7 6 2 3 1 5 6 7 6 5 6 5 1 20 25 11 14 10 8
15 14 14 14 13 12 10 9 8 9 8 7 7 7 7 5 8 14 11 9 15 14 9 13 11 8 5 7 3 4 2 3 6 7 9 8 16 5 15 22 18 20 17 16 21
15 14 14 14 14 13 11 9 8 7 8 6 7 8 8 6 5 7 17 15 12 14 12 11 10 9 8 5 5 6 4 3 7 9 6 17 24 13 7 16 12 16 18 21 24
15 15 15 15 15 13 12 9 7 7 7 6 7 7 6 7 3 5 6 17 15 13 11 12 8 7 6 6 9 3 10 3 7 4 1 11 10 22 22 14 16 18 18 21 22
15 15 15 15 15 15 13 10 7 7 8 8 9 8 6 5 7 8 9 14 12 13 14 13 8 8 7 10 8 7 5 6 8 7 9 24 20 19 18 16 17 19 21 20 19
16 15 15 14 15 14 13 11 7 6 8 8 10 8 6 7 3 4 9 13 14 15 12 9 7 11 4 7 7 8 8 5 7 8 13 22 13 9 13 14 17 19 19 18 19
16 16 15 14 14 14 14 11 7 8 9 10 9 9 7 4 3 6 12 11 11 9 10 9 2 6 5 1 2 2 2 4 6 8 18 20 17 14 14 14 16 17 17 17 18
17 16 16 15 14 14 14 11 7 9 10 9 8 7 6 4 4 8 10 9 12 7 7 5 5 6 3 3 3 4 5 6 11 13 11 6 9 10 13 14 14 16 15 16 19
17 16 16 15 14 14 13 1 8 10 11 10 7 5 3 1 8 9 6 11 8 5 5 4 2 3 2 4 5 7 6 8 6 10 7 6 14 10 12 13 14 13 13 13 14
17 16 15 15 14 13 12 7 9 12 8 8 6 3 5 7 5 8 8 10 7 8 5 5 4 4 3 5 7 7 6 9 10 8 9 21 16 11 11 13 13 12 12 13 14
18 16 15 14 13 11 5 5 5 4 7 9 9 4 9 6 5 7 6 11 6 7 6 7 4 9 9 12 15 8 5 5 11 18 16 17 15 11 10 12 12 12 12 13 15
18 16 14 12 10 8 4 5 5 4 5 16 5 8 5 7 6 9 9 8 8 7 7 4 10 9 10 8 10 8 8 5 9 14 17 16 14 11 11 12 11 12 12 12 12
20 17 13 10 8 3 8 8 5 7 5 7 10 7 5 5 7 14 10 5 7 9 10 8 1 14 10 5 5 6 6 7 9 6 18 19 8 10 11 13 13 13 12 12 13
20 16 11 6 1 5 5 8 9 5 4 9 8 6 8 5 3 10 7 3 6 12 8 6 7 4 4 7 7 7 8 8 7 9 6 14 4 8 12 11 12 12 11 11 12
19 13 8 7 7 4 4 3 2 2 4 8 9 3 8 4 12 3 2 1 6 5 6 3 5 5 7 6 9 3 3 5 5 6 4 9 1 7 13 10 10 10 11 11 12
17 11 6 4 3 4 3 2 2 2 8 6 7 8 9 7 3 5 5 1 3 3 1 1 3 3 2 4 2 7 5 4 1 2 5 10 9 7 4 10 11 11 10 11 11
17 6 4 4 1 3 3 3 3 6 5 8 8 10 12 9 7 7 10 6 5 5 6 6 5 3 1 5 3 3 7 3 2 2 7 5 6 6 9 11 11 10 10 10 10
16 3 5 1 3 3 2 2 6 8 4 4 7 12 9 13 5 8 11 7 2 2 3 7 4 7 6 1 6 7 7 5 6 6 4 3 5 7 10 11 10 11 10 9 10
15 3 3 1 1 3 2 6 2 6 5 2 6 13 4 5 4 7 8 7 4 4 3 7 5 4 6 4 2 5 5 3 3 3 1 7 5 4 9 9 10 10 9 9 9
4 3 3 2 3 1 3 7 3 3 5 3 4 9 10 13 7 8 10 3 5 4 4 3 5 1 2 3 1 2 3 3 2 4 5 5 7 6 11 10 9 8 7 8 9
3 3 2 3 2 2 3 4 5 3 4 4 4 2 6 11 8 9 6 4 6 2 4 4 1 2 2 7 5 2 2 2 1 3 2 2 3 7 9 9 9 7 8 7 7
4 2 2 1 2 1 1 5 3 2 3 1 3 8 5 3 3 4 6 6 5 3 1 3 2 5 5 4 6 5 4 5 2 2 3 3 4 7 9 8 7 7 8 6 7
3 2 0 1 2 2 4 3 4 1 3 3 3 4 4 4 4 6 6 4 5 5 3 3 1 5 3 2 3 6 4 3 2 2 2 4 3 6 7 8 7 7 7 5 6
3 1 1 2 2 1 4 4 3 3 2 3 3 2 4 3 6 5 5 3 6 4 6 1 5 3 5 4 3 5 4 4 3 4 2 2 7 4 4 6 7 5 3 2 4
3 3 0 2 2 3 3 5 4 3 2 2 3 4 2 5 4 5 4 5 4 3 3 3 5 5 8 8 7 7 7 7 5 1 4 2 6 3 4 1 3 4 3 4 4
4 4 3 3 6 3 1 2 5 3 4 1 4 3 5 5 1 6 7 4 3 3 3 3 4 3 4 6 6 6 7 5 7 4 7 6 2 3 2 3 2 4 4 2 4
5 2 2 3 2 4 2 2 6 8 7 6 12 14 15 11 13 13 13 10 6 4 3 3 5 2 2 4 5 3 4 6 5 6 3 2 3 3 3 2 1 3 3 2 4
Wind_Direction
346 345 342 335 330 321 307 297 272 266 235 239 228 225 237 229 238 211 229 229 181 168 172 182 207 206 202 194 233 298 272 221 210 207 96 139 133 48 269 70 62 71 69 85 87
341 341 340 334 332 331 315 297 272 257 262 231 225 227 221 220 236 243 225 176 148 164 192 178 191 187 193 176 201 193 237 240 38 57 88 57 45 48 71 50 48 55 47 48 40
339 338 338 336 333 329 323 311 276 247 252 241 222 219 216 197 252 239 202 161 160 171 201 187 188 188 204 174 205 198 225 156 69 64 14 93 63 36 109 52 40 49 38 39 41
338 337 340 338 334 330 327 312 279 240 228 233 217 215 193 209 217 101 82 156 166 185 220 201 190 205 216 209 204 195 236 310 108 51 327 84 82 67 65 75 60 53 50 43 38
336 337 340 336 333 329 326 313 287 238 213 217 209 186 193 209 254 114 173 165 164 186 211 199 188 203 216 190 212 208 202 219 122 120 81 83 82 91 76 78 69 61 52 47 40
336 337 337 335 331 329 324 311 275 227 202 206 204 190 253 230 30 92 136 160 172 187 200 195 207 221 272 245 200 189 235 172 157 163 120 110 90 89 89 84 75 66 57 50 46
337 335 333 333 332 330 322 303 262 205 190 201 198 204 246 243 354 112 148 169 163 190 181 205 251 229 231 247 82 188 201 215 195 165 114 113 53 95 99 83 74 68 65 55 47
336 334 332 333 332 330 324 309 195 178 170 196 177 223 262 18 313 155 177 147 173 193 205 133 25 322 261 32 110 211 223 209 186 167 150 164 114 83 88 86 74 66 61 56 48
333 333 332 330 331 330 327 312 154 153 162 154 166 242 254 192 184 182 164 157 143 134 60 107 158 222 151 243 192 207 206 195 138 171 139 115 127 97 83 85 75 65 60 54 49
331 331 330 327 328 326 321 262 153 143 174 181 279 203 212 215 163 155 182 159 152 133 124 157 189 189 209 220 201 202 227 183 143 175 121 102 112 99 86 84 72 66 58 56 49
329 327 325 324 321 321 315 138 167 164 220 191 196 220 132 68 125 166 197 160 141 175 158 201 184 201 206 227 269 315 249 165 122 119 93 115 118 103 81 78 74 61 53 50 49
327 322 319 317 308 303 280 242 39 353 227 228 266 212 124 186 146 169 178 176 167 184 174 144 229 219 220 229 238 269 296 101 111 137 102 119 109 104 92 82 75 70 57 47 42
325 319 313 306 300 257 235 230 32 326 258 166 199 192 176 205 165 174 194 206 192 198 201 169 323 204 240 211 241 241 228 260 145 122 118 123 115 124 115 104 88 73 64 53 44
322 315 305 292 183 213 215 241 272 307 269 158 193 209 155 212 62 145 219 202 211 202 171 240 233 180 186 214 199 237 214 257 133 141 181 202 161 158 138 103 79 68 58 51 47
320 310 289 238 328 212 360 347 116 239 253 133 134 73 155 166 129 197 78 158 193 208 141 206 141 187 181 202 196 206 348 159 226 180 341 217 289 123 143 116 89 70 60 49 47
323 305 274 195 218 292 295 229 167 219 234 157 133 172 169 152 112 123 178 256 320 157 295 16 349 188 228 59 6 126 116 95 104 159 258 207 179 169 159 118 104 81 63 52 43
331 305 213 306 66 324 241 202 175 233 141 163 179 165 170 164 142 164 168 181 164 149 193 178 178 98 260 106 16 226 154 129 174 213 227 197 178 69 99 72 88 87 71 57 45
337 287 205 347 321 275 223 215 239 188 68 55 138 164 173 149 130 177 166 170 30 321 198 177 180 152 167 308 178 200 201 166 208 189 208 165 109 127 105 103 97 91 78 60 49
322 206 184 105 260 266 219 217 350 13 338 122 160 176 128 155 181 165 189 163 72 31 258 193 128 85 32 0 22 183 226 353 324 258 268 124 89 109 131 122 105 86 71 58 44
288 222 80 112 197 239 225 227 87 22 338 293 184 205 180 182 163 192 173 23 115 41 328 41 109 12 122 282 99 357 341 128 229 225 226 136 131 127 168 142 112 84 64 52 48
250 249 48 136 233 227 229 97 122 62 345 355 344 122 308 167 200 188 138 33 13 71 313 9 77 104 165 23 359 20 186 253 272 257 240 181 121 349 109 99 104 89 76 58 53
299 248 354 208 174 257 82 19 7 93 11 66 32 25 26 13 16 63 113 43 345 293 94 53 39 84 79 79 26 57 34 12 125 306 54 125 155 72 81 73 78 90 71 53 55
286 98 320 269 196 143 127 74 45 85 34 5 107 46 12 48 87 91 85 28 348 40 51 326 354 107 125 170 92 61 11 357 136 39 253 129 172 105 104 98 70 55 60 28 40
319 256 104 44 298 140 156 149 115 33 74 47 116 91 96 61 38 116 115 57 24 71 39 347 62 80 163 93 98 104 57 18 70 100 285 89 143 165 87 71 38 20 359 16 83
26 64 226 17 33 330 135 140 135 132 68 341 78 40 125 134 119 112 103 138 51 23 45 64 97 84 57 71 66 70 53 27 74 79 120 185 113 171 120 115 254 249 3 20 23
11 358 0 30 323 99 254 138 132 116 356 63 115 121 64 79 4 157 137 148 118 58 71 356 112 103 78 60 90 87 36 84 80 90 94 122 92 161 182 226 37 22 14 359 18
352 326 259 4 256 307 36 90 113 122 354 95 110 94 84 81 75 72 70 69 72 91 83 76 121 106 94 109 137 53 11 19 100 54 346 171 129 152 119 0 352 312 301 66 339